Location: ??
(35.5052°N, 139.7262°E)
Time: 07:05:59
(UTC+00:00)

Meteor 2-1 Rocket - Visible Passes

Search period start: 28 October 2021 00:00
Search period end: 07 November 2021 00:00
Orbit: 829 x 907 km, 81.3° (Epoch: 27 October)

Date Brightness Start Highest point End Pass type
(mag) Time Alt. Az. Time Alt. Az. Time Alt. Az.
28 Oct 5.1 08:53:56 10° SE 08:58:20 24° E 09:02:10 12° NE visible
28 Oct 5.6 10:36:15 10° SW 10:41:22 36° WNW 10:46:26 10° N visible
28 Oct 7.0 19:38:52 10° NE 19:42:07 16° ENE 19:45:22 10° ESE visible
29 Oct 5.1 08:47:09 10° SE 08:51:35 24° E 08:55:58 10° NE visible
29 Oct 5.6 10:29:32 10° SW 10:34:37 35° WNW 10:39:40 10° N visible
29 Oct 7.0 19:32:03 10° NNE 19:35:24 16° ENE 19:38:44 10° ESE visible
30 Oct 5.1 08:40:22 10° SE 08:44:50 25° E 08:49:16 10° NE visible
30 Oct 5.7 10:22:50 10° SW 10:27:53 34° WNW 10:32:54 10° N visible
30 Oct 7.0 19:25:14 10° NNE 19:28:40 16° ENE 19:32:06 10° ESE visible
31 Oct 5.1 08:33:35 10° SE 08:38:05 25° E 08:42:32 10° NE visible
31 Oct 5.7 10:16:09 10° SW 10:21:09 33° WNW 10:26:08 10° NNW visible
31 Oct 7.0 19:18:26 10° NNE 19:21:56 17° ENE 19:25:27 10° ESE visible
01 Nov 5.1 08:26:48 10° SE 08:31:20 26° E 08:35:49 10° NE visible
01 Nov 5.8 10:09:26 10° SW 10:14:25 33° WNW 10:19:22 10° NNW visible
01 Nov 7.0 19:11:36 10° NNE 19:15:12 17° ENE 19:18:49 10° ESE visible
02 Nov 5.1 08:20:01 10° SE 08:24:35 27° E 08:29:07 10° NE visible
02 Nov 5.8 10:02:44 10° SW 10:07:40 32° WNW 10:12:35 10° NNW visible
02 Nov 6.9 19:04:48 10° NNE 19:08:29 18° ENE 19:12:10 10° ESE visible
03 Nov 5.1 08:13:14 10° SE 08:17:49 27° E 08:22:23 10° NNE visible
03 Nov 5.9 09:56:03 10° SW 10:00:56 31° WNW 10:05:49 10° NNW visible
03 Nov 6.9 18:58:00 10° NNE 19:01:45 18° ENE 19:05:31 10° ESE visible
04 Nov 5.0 08:06:27 10° SSE 08:11:04 28° E 08:15:40 10° NNE visible
04 Nov 5.9 09:49:20 10° SW 09:54:12 31° WNW 09:59:02 10° NNW visible
04 Nov 6.8 18:51:12 10° NNE 18:55:02 18° ENE 18:58:52 10° ESE visible
04 Nov 4.5 20:33:09 10° NNW 20:38:33 50° W 20:44:02 10° SSW visible
05 Nov 5.0 07:59:39 10° SSE 08:04:20 28° E 08:08:57 10° NNE visible
05 Nov 6.0 09:42:39 10° SW 09:47:27 30° WNW 09:52:17 10° NNW visible
05 Nov 6.8 18:44:24 10° NNE 18:48:18 19° ENE 18:52:13 10° ESE visible
05 Nov 4.5 20:26:25 10° NNW 20:31:49 48° W 20:37:17 10° SSW visible
06 Nov 6.1 09:35:57 10° SW 09:40:44 29° WNW 09:45:30 10° NNW visible
06 Nov 6.7 18:37:36 10° NNE 18:41:34 19° ENE 18:45:34 10° ESE visible
06 Nov 4.5 20:19:40 10° NNW 20:25:04 47° W 20:30:32 10° SSW visible
